#timestamp,LO_Frequency,Hit,StdDev 
1513242015.8,286047002.7,N
1513242035.6,286046999.7,N
1513242055.4,286047002.4,N
1513242075.3,286047001.6,N
1513242095.1,286047003.3,N
1513242115.9,286047005.8,Y
1513242135.7,286047004.1,P
1513242155.5,286047001.5,N
1513242175.4,286047003.2,N
1513242195.2,286047001.5,N
1513242215.0,286047002.4,N
1513242215.9,286047002.4,N
1513242235.8,286047000.7,N
1513242255.6,286047000.5,N
1513242275.5,286047003.6,Y
1513242295.3,286047004.2,P
1513242315.1,286047005.1,P
1513242335.9,286047005.1,P
1513242355.7,286047006.0,Y
1513242375.6,286047001.0,P
1513242395.4,286047001.1,N
1513242415.2,286046999.4,N
1513242435.1,286047000.4,N
1513242436.0,286047000.4,N
1513242455.8,286047000.3,N
1513242475.6,286046999.9,N
1513242495.5,286046999.1,N
1513242515.3,286046999.2,N
1513242535.2,286047000.9,N
1513242555.9,286046999.7,N
1513242575.7,286047001.1,N
1513242595.6,286046999.0,N
1513242615.4,286046998.6,N
1513242635.2,286047000.8,N
1513242655.1,286046999.5,N
1513242656.0,286046999.5,N
1513242675.8,286046999.1,N
1513242695.7,286046998.7,N
1513242715.5,286046999.1,N
1513242735.3,286046998.5,N
1513242755.2,286046998.2,N
1513242775.0,286046999.9,N
1513242775.9,286046999.9,N
1513242795.7,286047002.4,N
1513242815.6,286046999.7,N
1513242835.4,286047000.3,N
1513242855.3,286046998.2,N
1513242875.1,286046999.1,N
1513242895.8,286046999.4,N
1513242915.7,286046996.5,Y
1513242935.5,286046997.1,P
1513242955.4,286046998.0,N
1513242975.2,286046999.1,N
1513242995.0,286046999.3,N
1513242995.9,286046999.3,N
1513243015.8,286046998.9,N
1513243035.6,286046998.7,N
1513243055.4,286046998.8,N
1513243075.3,286046999.4,N
1513243095.1,286046998.5,N
1513243115.9,286046998.9,N
1513243135.7,286046999.0,N
1513243155.5,286047001.1,N
1513243175.4,286047000.2,N
1513243195.2,286047000.7,N
1513243215.0,286046998.4,N
1513243215.9,286046998.4,N
1513243235.8,286046998.4,N
1513243255.6,286046998.5,N
1513243275.5,286046998.7,N
1513243295.3,286046998.6,N
1513243315.1,286046998.3,N
1513243335.9,286047000.2,N
1513243355.7,286047000.3,N
1513243375.5,286046998.5,N
1513243395.4,286047000.3,N
1513243415.2,286047002.7,N
1513243435.1,286047000.2,N
1513243436.0,286047000.2,N
1513243455.8,286047001.4,N
1513243475.6,286047001.7,N
1513243495.5,286047001.3,N
1513243515.3,286047001.5,N
1513243535.2,286047003.7,Y
1513243555.9,286047005.7,P
1513243575.7,286047008.8,N
1513243595.6,286047006.2,N
1513243615.4,286047008.0,N
1513243635.2,286047010.4,Y
1513243655.1,286047006.7,P
1513243656.0,286047006.7,P
1513243675.8,286047006.6,P
1513243695.7,286047004.6,Y
1513243715.5,286046998.9,P
1513243735.3,286046996.5,N
1513243755.2,286046998.2,N
1513243775.0,286047000.2,N
1513243775.9,286047000.2,N
1513243795.8,286047001.0,N
1513243815.6,286047002.3,N
1513243835.4,286047002.2,N
1513243855.3,286047003.2,N
1513243875.1,286047003.5,N
1513243895.8,286047005.8,N
1513243915.7,286047005.9,N
1513243935.5,286047003.1,N
1513243955.4,286047005.9,N
1513243975.2,286047002.1,N
1513243995.0,286046999.9,N
1513243995.9,286046999.9,N
1513244015.8,286047000.3,N
1513244035.6,286046998.4,N
1513244055.4,286046998.7,N
1513244075.3,286046999.6,N
1513244095.1,286046997.2,N
1513244115.9,286046995.0,N
1513244135.7,286046997.1,N
1513244155.5,286046999.6,N
1513244175.4,286046996.5,N
1513244195.2,286047000.9,N
1513244215.0,286046998.9,N
1513244215.9,286046998.9,N
1513244235.8,286046998.4,N
1513244255.6,286046999.2,N
1513244275.5,286046996.9,N
1513244295.3,286046997.1,N
1513244315.1,286046996.6,N
1513244335.9,286046996.6,N
1513244355.7,286046995.2,N
1513244375.6,286046995.3,N
1513244395.4,286046995.7,N
1513244415.2,286046995.3,N
1513244435.1,286046993.9,N
1513244436.0,286046993.9,N
1513244455.8,286046994.6,N
1513244475.6,286046992.3,N
1513244495.5,286046992.5,N
1513244515.3,286046992.4,Y
1513244535.2,286046995.5,P
1513244555.9,286046994.8,P
1513244575.7,286046994.8,P
1513244595.6,286046991.9,Y
1513244615.4,286046997.6,P
1513244635.3,286046997.2,N
1513244655.1,286046996.8,P
1513244656.0,286046996.8,Y
1513244675.8,286047003.8,P
1513244695.7,286047003.0,N
1513244715.5,286046999.7,N
1513244735.4,286047002.7,N
1513244755.2,286046999.8,N
1513244775.0,286047001.6,N
1513244775.9,286047001.6,N
1513244795.8,286047002.8,N
1513244815.6,286047002.3,N
1513244835.4,286047000.9,N
1513244855.3,286047000.4,N
1513244875.1,286047000.9,N
1513244895.9,286047001.0,N
1513244915.7,286047011.9,Y
1513244935.5,286046998.2,P
1513244955.4,286047001.2,N
1513244975.2,286047002.8,N
1513244995.1,286047002.3,N
1513244996.0,286047002.3,N
1513245015.8,286047003.2,N
1513245035.6,286047001.9,N
1513245055.5,286047002.4,N
1513245075.3,286046998.3,N
1513245095.1,286046997.6,N
1513245115.9,286046997.9,N
1513245135.7,286046999.6,N
1513245155.6,286046996.8,N
1513245175.4,286046997.1,N
1513245195.2,286046997.2,N
1513245215.1,286046995.1,N
1513245216.0,286046995.1,N
1513245235.8,286046993.5,N
1513245255.6,286046993.9,N
1513245275.5,286046995.6,N
1513245295.3,286046993.7,N
1513245315.2,286046992.8,N
1513245335.9,286046989.0,Y
1513245355.7,286046990.9,P
1513245375.6,286046990.4,N
1513245395.4,286046986.3,P
1513245415.3,286046988.9,N
1513245435.1,286046990.2,N
1513245436.0,286046990.2,N
1513245455.8,286046991.5,N
1513245475.7,286046991.0,N
1513245495.5,286046990.8,Y
1513245515.3,286046998.7,P
1513245535.2,286047001.1,N
1513245555.0,286047002.4,N
1513245555.9,286047002.4,N
1513245575.8,286047001.5,N
1513245595.6,286046999.8,N
